�������l�o���
Date,Time,MP-1(��Sv/h),MP-2(��Sv/h),MP-3(��Sv/h),MP-4(��Sv/h),MP-5(��Sv/h),MP-6(��Sv/h),MP-7(��Sv/h),MP-8(��Sv/h),����,����(m/s),���J
2015/02/08,00:00,1.872,3.435,3.490,3.278,3.530,1.105,1.802,2.112,��,6.4,��
2015/02/08,00:10,1.877,3.433,3.493,3.277,3.532,1.103,1.803,2.107,��,6.3,��
2015/02/08,00:20,1.875,3.440,3.495,3.273,3.532,1.103,1.803,2.110,��,5.2,��
2015/02/08,00:30,1.877,3.438,3.495,3.275,3.535,1.102,1.803,2.110,��쐼,5.2,��
2015/02/08,00:40,1.875,3.433,3.497,3.278,3.532,1.102,1.803,2.110,��쐼,4.6,��
2015/02/08,00:50,1.877,3.440,3.495,3.277,3.535,1.103,1.803,2.108,��쐼,5.0,��
2015/02/08,01:00,1.873,3.435,3.498,3.283,3.540,1.103,1.805,2.112,��쐼,4.7,��
2015/02/08,01:10,1.877,3.437,3.498,3.277,3.537,1.102,1.803,2.107,��쐼,4.6,��
2015/02/08,01:20,1.877,3.438,3.493,3.280,3.533,1.102,1.805,2.107,��쐼,5.6,��
2015/02/08,01:30,1.877,3.433,3.498,3.283,3.535,1.102,1.805,2.112,��,5.8,�L
2015/02/08,01:40,1.877,3.435,3.493,3.282,3.533,1.103,1.805,2.108,��,6.3,��
2015/02/08,01:50,1.878,3.433,3.493,3.280,3.532,1.102,1.803,2.112,��쐼,5.7,��
2015/02/08,02:00,1.873,3.432,3.493,3.280,3.533,1.102,1.803,2.110,��쐼,5.8,��
2015/02/08,02:10,1.873,3.435,3.493,3.283,3.530,1.105,1.803,2.110,��쐼,5.2,�L
2015/02/08,02:20,1.877,3.433,3.493,3.282,3.533,1.103,1.803,2.110,��쐼,5.5,�L
2015/02/08,02:30,1.877,3.432,3.493,3.282,3.530,1.103,1.803,2.112,��쐼,5.3,�L
2015/02/08,02:40,1.877,3.428,3.492,3.277,3.528,1.102,1.805,2.107,��쐼,4.5,�L
2015/02/08,02:50,1.877,3.425,3.493,3.278,3.528,1.103,1.802,2.112,��쐼,3.9,�L
2015/02/08,03:00,1.877,3.425,3.492,3.280,3.527,1.105,1.800,2.112,��쐼,3.5,�L
2015/02/08,03:10,1.878,3.420,3.488,3.278,3.517,1.105,1.802,2.108,��쐼,3.0,�L
2015/02/08,03:20,1.875,3.418,3.487,3.278,3.518,1.103,1.802,2.108,��쐼,2.1,�L
2015/02/08,03:30,1.875,3.418,3.487,3.277,3.515,1.103,1.800,2.108,��,2.3,�L
2015/02/08,03:40,1.877,3.417,3.480,3.277,3.517,1.102,1.802,2.108,��쐼,2.1,�L
2015/02/08,03:50,1.873,3.415,3.475,3.277,3.517,1.102,1.800,2.107,��쐼,2.1,��
2015/02/08,04:00,1.877,3.415,3.473,3.278,3.517,1.103,1.798,2.108,��쐼,2.2,�L
2015/02/08,04:10,1.872,3.412,3.477,3.278,3.518,1.102,1.798,2.107,��쐼,2.1,�L
2015/02/08,04:20,1.870,3.410,3.475,3.275,3.510,1.103,1.800,2.108,��쐼,1.8,�L
2015/02/08,04:30,1.872,3.408,3.468,3.273,3.505,1.103,1.798,2.105,�쐼,1.7,�L
2015/02/08,04:40,1.873,3.402,3.465,3.272,3.497,1.102,1.798,2.105,��쐼,1.1,�L
2015/02/08,04:50,1.873,3.400,3.468,3.272,3.497,1.103,1.797,2.103,���쐼,1.0,�L
2015/02/08,05:00,1.873,3.400,3.465,3.272,3.498,1.102,1.797,2.102,���쐼,1.9,�L
2015/02/08,05:10,1.873,3.398,3.467,3.270,3.498,1.102,1.797,2.103,���쐼,1.2,��
2015/02/08,05:20,1.872,3.397,3.467,3.270,3.498,1.102,1.795,2.103,���쐼,1.3,��
2015/02/08,05:30,1.870,3.398,3.468,3.272,3.497,1.102,1.795,2.102,��,2.1,�L
2015/02/08,05:40,1.872,3.398,3.463,3.272,3.495,1.102,1.795,2.102,���쐼,1.9,�L
2015/02/08,05:50,1.872,3.398,3.460,3.273,3.497,1.098,1.797,2.102,���쐼,1.6,��
2015/02/08,06:00,1.873,3.398,3.465,3.277,3.490,1.100,1.798,2.102,�쐼,1.7,��
2015/02/08,06:10,1.872,3.397,3.468,3.272,3.493,1.102,1.798,2.103,��쐼,1.3,��
2015/02/08,06:20,1.870,3.398,3.467,3.270,3.495,1.102,1.793,2.103,��쐼,1.5,��
2015/02/08,06:30,1.872,3.397,3.467,3.275,3.495,1.098,1.797,2.103,�쐼,1.9,��
2015/02/08,06:40,1.872,3.402,3.465,3.272,3.497,1.098,1.798,2.103,���쐼,2.4,��
2015/02/08,06:50,1.875,3.402,3.467,3.275,3.498,1.098,1.797,2.105,���쐼,1.3,��
2015/02/08,07:00,1.872,3.402,3.467,3.275,3.500,1.097,1.797,2.103,���쐼,1.3,��
2015/02/08,07:10,1.872,3.400,3.472,3.280,3.503,1.100,1.798,2.098,�쐼,1.0,��
2015/02/08,07:20,1.872,3.400,3.473,3.278,3.500,1.100,1.800,2.102,��쐼,1.0,��
2015/02/08,07:30,1.872,3.400,3.473,3.278,3.498,1.098,1.800,2.102,��쐼,1.1,��
2015/02/08,07:40,1.873,3.400,3.473,3.280,3.498,1.100,1.800,2.103,��쐼,0.8,��
2015/02/08,07:50,1.873,3.403,3.470,3.280,3.498,1.097,1.797,2.103,��쐼,0.7,��
2015/02/08,08:00,1.872,3.403,3.473,3.280,3.498,1.098,1.800,2.105,��,0.5,��
2015/02/08,08:10,1.875,3.405,3.472,3.282,3.500,1.102,1.800,2.103,��쐼,0.7,��
2015/02/08,08:20,1.877,3.405,3.472,3.282,3.498,1.098,1.802,2.102,��쐼,0.5,��
2015/02/08,08:30,1.873,3.405,3.477,3.282,3.503,1.102,1.800,2.102,-,CALM,��
2015/02/08,08:40,1.877,3.405,3.473,3.282,3.502,1.103,1.802,2.100,��쓌,0.9,��
2015/02/08,08:50,1.877,3.408,3.482,3.287,3.503,1.102,1.803,2.103,-,CALM,��
2015/02/08,09:00,1.878,3.412,3.485,3.288,3.505,1.103,1.802,2.107,-,CALM,��
2015/02/08,09:10,1.877,3.412,3.485,3.287,3.510,1.103,1.802,2.105,-,CALM,��
2015/02/08,09:20,1.878,3.408,3.487,3.287,3.508,1.105,1.802,2.103,��쓌,0.8,��
2015/02/08,09:30,1.878,3.412,3.488,3.287,3.508,1.107,1.802,2.103,�쓌,1.1,��
2015/02/08,09:40,1.880,3.412,3.490,3.288,3.512,1.102,1.805,2.103,��쓌,1.2,��
2015/02/08,09:50,1.878,3.418,3.492,3.295,3.518,1.103,1.803,2.102,�쓌,1.1,��
2015/02/08,10:00,1.878,3.420,3.495,3.290,3.522,1.107,1.808,2.105,�쓌,1.1,��
2015/02/08,10:10,1.882,3.422,3.498,3.293,3.517,1.107,1.805,2.105,���k��,1.0,��
2015/02/08,10:20,1.880,3.423,3.498,3.295,3.523,1.107,1.802,2.105,���쓌,1.5,��
2015/02/08,10:30,1.878,3.423,3.500,3.302,3.522,1.108,1.805,2.105,���쓌,1.7,��
2015/02/08,10:40,1.885,3.423,3.502,3.302,3.527,1.107,1.807,2.103,���쓌,1.7,��
2015/02/08,10:50,1.883,3.428,3.503,3.300,3.525,1.105,1.808,2.103,�쓌,1.9,��
2015/02/08,11:00,1.883,3.428,3.512,3.300,3.532,1.108,1.805,2.107,�쓌,2.2,��
2015/02/08,11:10,1.885,3.425,3.513,3.302,3.527,1.108,1.807,2.107,�쓌,2.4,��
2015/02/08,11:20,1.885,3.428,3.513,3.300,3.532,1.107,1.808,2.105,��쓌,3.2,��
2015/02/08,11:30,1.883,3.432,3.520,3.307,3.533,1.107,1.808,2.105,��쓌,2.8,��
2015/02/08,11:40,1.883,3.428,3.518,3.310,3.535,1.107,1.813,2.107,�쓌,3.2,��
2015/02/08,11:50,1.883,3.432,3.527,3.307,3.532,1.107,1.813,2.107,��쓌,2.0,��
2015/02/08,12:00,1.887,3.438,3.528,3.310,3.535,1.105,1.812,2.108,�쓌,2.2,��
2015/02/08,12:10,1.887,3.440,3.527,3.315,3.538,1.108,1.808,2.110,��,1.5,�L
2015/02/08,12:20,1.888,3.440,3.530,3.318,3.542,1.112,1.812,2.105,�쓌,1.4,�L
2015/02/08,12:30,1.888,3.440,3.532,3.315,3.540,1.110,1.813,2.108,�쓌,1.3,�L
2015/02/08,12:40,1.888,3.438,3.533,3.313,3.540,1.108,1.815,2.107,��쓌,1.2,�L
2015/02/08,12:50,1.888,3.437,3.535,3.315,3.540,1.112,1.812,2.108,-,CALM,�L
2015/02/08,13:00,1.888,3.430,3.532,3.313,3.535,1.110,1.812,2.105,�쓌,0.8,�L
2015/02/08,13:10,1.888,3.422,3.532,3.313,3.528,1.110,1.808,2.103,-,CALM,�L
2015/02/08,13:20,1.883,3.413,3.518,3.312,3.522,1.108,1.808,2.100,��쓌,2.3,�L
2015/02/08,13:30,1.882,3.407,3.515,3.302,3.508,1.105,1.802,2.095,��쓌,4.5,�L
2015/02/08,13:40,1.878,3.392,3.505,3.297,3.490,1.105,1.802,2.092,��쓌,9.1,�L
2015/02/08,13:50,1.873,3.362,3.490,3.290,3.472,1.102,1.798,2.090,��,1.5,�L
2015/02/08,14:00,1.872,3.348,3.480,3.280,3.457,1.100,1.797,2.085,�쓌,2.9,�L
2015/02/08,14:10,1.865,3.325,3.468,3.270,3.442,1.098,1.790,2.083,��,11.3,�L
2015/02/08,14:20,1.857,3.305,3.457,3.260,3.425,1.095,1.787,2.080,��쓌,6.8,�L
2015/02/08,14:30,1.852,3.290,3.445,3.253,3.403,1.097,1.783,2.078,��쐼,9.9,�L
2015/02/08,14:40,1.847,3.277,3.438,3.243,3.385,1.095,1.783,2.075,�쓌,21.2,�L
2015/02/08,14:50,1.843,3.268,3.430,3.235,3.375,1.093,1.782,2.073,��쓌,13.0,�L
2015/02/08,15:00,1.833,3.250,3.415,3.218,3.357,1.090,1.777,2.072,�쓌,15.8,�L
2015/02/08,15:10,1.832,3.242,3.410,3.215,3.352,1.090,1.773,2.070,��,5.7,�L
2015/02/08,15:20,1.830,3.237,3.417,3.217,3.347,1.087,1.775,2.065,�쓌,0.8,�L
2015/02/08,15:30,1.837,3.243,3.423,3.217,3.348,1.093,1.773,2.065,��쓌,1.1,�L
2015/02/08,15:40,1.838,3.257,3.432,3.222,3.353,1.092,1.777,2.067,���쓌,1.1,�L
2015/02/08,15:50,1.840,3.268,3.438,3.227,3.362,1.093,1.777,2.070,�쓌,2.0,�L
2015/02/08,16:00,1.843,3.268,3.438,3.227,3.360,1.095,1.777,2.068,��쓌,2.2,�L
2015/02/08,16:10,1.847,3.270,3.438,3.228,3.357,1.097,1.778,2.065,��쓌,8.8,�L
2015/02/08,16:20,1.845,3.265,3.440,3.227,3.355,1.093,1.777,2.068,��,10.7,�L
2015/02/08,16:30,1.838,3.258,3.437,3.225,3.348,1.093,1.777,2.065,��쓌,6.7,�L
2015/02/08,16:40,1.838,3.265,3.437,3.225,3.352,1.095,1.777,2.065,��쓌,3.5,�L
2015/02/08,16:50,1.842,3.267,3.445,3.230,3.353,1.092,1.772,2.067,��,3.5,�L
2015/02/08,17:00,1.840,3.275,3.452,3.232,3.358,1.095,1.778,2.067,��쓌,4.4,�L
2015/02/08,17:10,1.843,3.283,3.457,3.235,3.365,1.092,1.780,2.065,��쓌,5.1,��
2015/02/08,17:20,1.848,3.293,3.467,3.240,3.370,1.093,1.783,2.070,��쓌,6.1,��
2015/02/08,17:30,1.850,3.298,3.473,3.243,3.378,1.093,1.785,2.072,��,5.5,��
2015/02/08,17:40,1.853,3.307,3.478,3.252,3.383,1.093,1.787,2.068,��,5.6,��
2015/02/08,17:50,1.850,3.310,3.482,3.255,3.392,1.092,1.785,2.072,��쐼,3.7,��
2015/02/08,18:00,1.853,3.317,3.485,3.255,3.393,1.090,1.785,2.072,�쐼,3.9,��
2015/02/08,18:10,1.855,3.322,3.490,3.260,3.397,1.093,1.785,2.072,���쐼,2.6,��
2015/02/08,18:20,1.855,3.325,3.488,3.262,3.403,1.092,1.788,2.075,��,1.5,��
2015/02/08,18:30,1.858,3.328,3.488,3.258,3.405,1.095,1.787,2.073,��,2.3,��
2015/02/08,18:40,1.855,3.327,3.493,3.265,3.405,1.093,1.785,2.072,�k��,1.2,��
2015/02/08,18:50,1.858,3.332,3.493,3.263,3.412,1.092,1.787,2.077,��,1.2,��
2015/02/08,19:00,1.858,3.333,3.497,3.262,3.412,1.092,1.785,2.075,�k�k��,0.8,��
2015/02/08,19:10,1.857,3.333,3.497,3.262,3.417,1.095,1.783,2.075,�k�k��,0.7,��
2015/02/08,19:20,1.857,3.333,3.498,3.267,3.418,1.092,1.787,2.075,�k��,1.0,��
2015/02/08,19:30,1.860,3.337,3.500,3.267,3.418,1.090,1.788,2.073,-,CALM,��
2015/02/08,19:40,1.862,3.338,3.500,3.267,3.420,1.090,1.788,2.077,-,CALM,��
2015/02/08,19:50,1.860,3.343,3.500,3.267,3.422,1.088,1.787,2.075,��쐼,1.0,��
2015/02/08,20:00,1.858,3.343,3.500,3.270,3.425,1.093,1.790,2.073,��쓌,2.3,��
2015/02/08,20:10,1.858,3.345,3.503,3.272,3.425,1.090,1.788,2.078,��쓌,2.0,��
2015/02/08,20:20,1.857,3.342,3.505,3.273,3.428,1.095,1.787,2.075,��,2.0,��
2015/02/08,20:30,1.860,3.347,3.510,3.270,3.423,1.097,1.787,2.080,�쐼,3.8,��
2015/02/08,20:40,1.862,3.347,3.507,3.272,3.425,1.095,1.788,2.077,�쐼,3.6,��
2015/02/08,20:50,1.862,3.348,3.508,3.272,3.432,1.097,1.788,2.078,���쐼,5.0,��
2015/02/08,21:00,1.862,3.352,3.512,3.275,3.437,1.093,1.792,2.078,���쐼,5.2,��
2015/02/08,21:10,1.863,3.348,3.513,3.272,3.435,1.100,1.792,2.080,���쐼,4.4,��
2015/02/08,21:20,1.868,3.348,3.513,3.275,3.433,1.097,1.793,2.078,�쐼,4.0,��
2015/02/08,21:30,1.865,3.352,3.515,3.278,3.437,1.102,1.793,2.080,�쐼,3.3,��
2015/02/08,21:40,1.863,3.355,3.513,3.278,3.443,1.098,1.790,2.075,�쐼,3.4,��
2015/02/08,21:50,1.865,3.357,3.510,3.282,3.440,1.097,1.793,2.078,�쐼,3.0,��
2015/02/08,22:00,1.863,3.355,3.515,3.282,3.442,1.097,1.795,2.080,��쐼,3.2,��
2015/02/08,22:10,1.863,3.357,3.517,3.280,3.440,1.095,1.795,2.080,���쐼,4.6,��
2015/02/08,22:20,1.863,3.358,3.518,3.280,3.442,1.098,1.795,2.083,�쐼,4.3,��
2015/02/08,22:30,1.863,3.358,3.520,3.280,3.445,1.098,1.795,2.083,���쐼,7.1,��
2015/02/08,22:40,1.865,3.363,3.522,3.283,3.448,1.098,1.797,2.085,��,13.5,��
2015/02/08,22:50,1.868,3.363,3.522,3.287,3.452,1.100,1.798,2.082,��,14.6,��
2015/02/08,23:00,1.872,3.365,3.528,3.290,3.450,1.098,1.797,2.083,��,15.7,��
2015/02/08,23:10,1.868,3.363,3.528,3.293,3.455,1.100,1.798,2.083,��,14.1,��
2015/02/08,23:20,1.872,3.368,3.533,3.293,3.455,1.098,1.795,2.085,��,13.8,��
2015/02/08,23:30,1.872,3.367,3.535,3.293,3.457,1.098,1.797,2.085,��,11.6,��
2015/02/08,23:40,1.873,3.372,3.533,3.300,3.458,1.098,1.800,2.085,��,14.3,��
2015/02/08,23:50,1.877,3.373,3.537,3.305,3.460,1.100,1.798,2.090,���쐼,13.0,��
